Location: Unspecified
(48.9757°N, 0.0000°E)
Time: 11:01:38
(UTC+00:00)

N. Korean satellite - Visible Passes

Search period start: 21 October 2019 00:00
Search period end: 31 October 2019 00:00
Orbit: 455 x 508 km, 97.2° (Epoch: 20 October)

Date Brightness Start Highest point End Pass type
(mag) Time Alt. Az. Time Alt. Az. Time Alt. Az.
21 Oct 7.0 05:56:19 10° NNE 05:59:56 70° ESE 06:03:35 10° S visible
21 Oct 10.1 18:10:51 10° WSW 18:12:40 14° W 18:14:30 10° WNW visible
22 Oct 8.5 05:31:13 10° NNE 05:34:35 35° E 05:37:57 10° SSE visible
22 Oct 9.2 17:44:15 10° SSW 17:47:09 25° W 17:50:07 10° NW visible
23 Oct 9.8 05:06:28 10° NE 05:09:07 19° E 05:11:47 10° SE visible
24 Oct 10.6 04:43:08 10° E 04:43:34 10° E 04:43:59 10° E visible
25 Oct 7.4 05:48:29 10° NNE 05:52:05 56° E 05:55:43 10° S visible
25 Oct 9.9 18:02:26 10° SW 18:04:44 17° W 18:07:03 10° NW visible
26 Oct 8.9 05:23:27 10° NNE 05:26:41 29° E 05:29:56 10° SSE visible
26 Oct 8.7 17:36:07 10° SSW 17:39:13 31° W 17:42:24 10° NNW visible
27 Oct 10.0 04:58:51 10° NE 05:01:11 16° E 05:03:32 10° SE visible
28 Oct 6.6 06:05:52 10° NNE 06:09:33 88° WNW 06:13:15 10° SSW visible
28 Oct 10.4 18:21:25 10° WSW 18:22:19 11° W 18:23:13 10° WNW visible
29 Oct 7.9 05:40:38 10° NNE 05:44:12 46° E 05:47:46 10° S visible
29 Oct 9.6 17:54:05 10° SW 17:56:44 20° W 17:59:26 10° NW visible
30 Oct 9.3 05:15:41 10° NE 05:18:45 24° E 05:21:49 10° SSE visible
30 Oct 8.2 17:27:59 10° SSW 17:31:15 39° W 17:34:37 10° NNW visible
